logo
Search for airport 
image banner adimage banner adimage banner ad
image banner ad

EHKK - K9-Ab-B (Oil Platform)

Located in , Netherlands

ICAO - , IATA -

Data provided by Airmate  

General information

Coordinates: N53°33'3" E3°46'46"
Elevation is feet MSL.
 
View others Airports in Noord-Holland

Operational data

Special qualification required
Current time UTC:
Current local time:
Weather at : EHKV - K14-Fa-1C (Oil Platform) ( 33 km )
METAR: EHKV 130325Z AUTO VRB12KT 4100 SHRA FEW003 SCT006 FEW015CB BKN020 14/14 Q1009
View NOTAMs / SUP AIP / TFR affecting this airport [VIEW]
Communications frequencies: [VIEW]

Runways:

Airport contact information

Address: Netherlands

Satellite view of EHKK